User: anonymous   Login
Location: Nebula Knoll Observatory
(43.6666°N, 71.0000°W)
Time: 13:03:13
(UTC-04:00)
Language:

SeaSat 1 - Orbit

View from above orbital plane
View from above orbital plane
View from above satellite
View from above satellite

Ground track
Ground track

The orbit data is extracted from the following two-line orbital elements,

1 10967U 78064A   18110.91518215 -.00000048 +00000-0 +26192-4 0  9998
2 10967 108.0102 222.6265 0001469 282.5008 077.5972 14.43706333090782
Epoch (UTC): 20 April 2018 21:57:51
Eccentricity: 0.0001469
inclination: 108.0102°
perigee height: 745 km
apogee height: 747 km
right ascension of ascending node: 222.6265°
argument of perigee: 282.5008°
revolutions per day: 14.43706333
mean anomaly at epoch: 77.5972°
orbit number at epoch: 9078

The dashed part of the orbit path shows where the satellite is in the earth's shadow,  

DLR